Regional Weather Roundup
Issued by NWS Upton, NY

Current Version | Previous Version | Text Only | Print | Product List | Glossary On
Versions: 1 2 3 4 5 6 7 8 9 10 11 12 13 14 15 16 17 18 19 20 21 22 23 24 25 26 27 28 29 30 31 32 33 34 35 36 37 38 39 40 41 42 43 44 45 46 47 48 49 50
000
ASUS41 KOKX 301205
RWROKX

REGIONAL WEATHER ROUNDUP
NATIONAL WEATHER SERVICE NEW YORK NY
800 AM EDT WED JUL 30 2014

NOTE: "FAIR" INDICATES FEW OR NO CLOUDS BELOW 12,000 FEET WITH NO
SIGNIFICANT WEATHER AND/OR OBSTRUCTIONS TO VISIBILITY.

NYZ071-072-176-178-NJZ106-104-301300-
NEW YORK CITY METRO AREA


CITY           SKY/WX    TMP DP  RH WIND       PRES   REMARKS
CENTRAL PARK   SUNNY     65  55  70 VRB3      30.06R
LAGUARDIA APRT MOSUNNY   68  53  58 N5        30.02R
KENNEDY INTL   MOSUNNY   69  54  58 VRB5      30.04R
NEWARK/LIBERTY MOSUNNY   68  52  56 N5        30.03R
BRNX BOT. GARD   N/A     68  54  60 N2        30.05R
TETERBORO      SUNNY     66  53  63 N3        30.02R
$$

NYZ177-179-078>081-301300-
LONG ISLAND NEW YORK

CITY           SKY/WX    TMP DP  RH WIND       PRES   REMARKS
FARMINGDALE    SUNNY     66  56  70 N3        30.03R
ISLIP          MOSUNNY   68  59  73 N5        30.00R
SHIRLEY        CLOUDY    68  63  84 CALM      30.02R
WESTHAMPTON    CLOUDY    66  61  84 CALM      30.03R
MONTAUK POINT    N/A     69  58  67 N3        30.02R
$$

NYZ052-065-067-301300-
HUDSON VALLEY

CITY           SKY/WX    TMP DP  RH WIND       PRES   REMARKS
WHITE PLAINS   SUNNY     64  56  75 NW6       30.03R
NEWBURGH       MOSUNNY   61  57  88 CALM      30.05R
MONTGOMERY     SUNNY     59  56  89 SW3       30.04R
POUGHKEEPSIE   MOSUNNY   63  57  81 CALM      30.03R
ALBANY         CLOUDY    62  54  74 CALM      30.03R
$$

NJZ001-105-106-008-010-013-015-019>022-104-301300-
NEW JERSEY

CITY           SKY/WX    TMP DP  RH WIND       PRES   REMARKS
NEWARK/LIBERTY MOSUNNY   68  52  56 N5        30.03R
TETERBORO      SUNNY     66  53  63 N3        30.02R
CALDWELL       SUNNY     61  54  77 CALM      30.04R
MORRISTOWN     MOSUNNY   59  57  94 CALM      30.04R
SOMERVILLE     SUNNY     58  53  84 CALM      30.03R
LINDEN         FAIR      66  53  64 CALM      30.05R
SUSSEX         SUNNY     57  53  86 CALM      30.05R
ANDOVER          N/A     55  54  96 SW3       30.06R
TRENTON        SUNNY     61  55  81 CALM      30.04R
MILLVILLE      SUNNY     63  56  78 N3        30.05R
ATLANTIC CITY  MOSUNNY   64  57  78 MISG      30.04R
WRIGHTSTOWN    SUNNY     63  57  81 CALM      30.02R
TOMS RIVER     SUNNY     63  54  72 CALM      30.04R
BELMAR         MOSUNNY   63  54  72 NW5       30.03S
$$

PAZ047>061-062-071-301300-
EASTERN PENNSYLVANIA

CITY           SKY/WX    TMP DP  RH WIND       PRES   REMARKS
PHILADELPHIA   MOSUNNY   65  53  65 VRB3      30.05R
ALLENTOWN      SUNNY     59  53  80 CALM      30.05R
SCRANTON       SUNNY     56  50  80 CALM      30.06R
$$

CTZ002-004>006-009-010-012-RIZ004-006-007-MAZ004-011-015-301300-
SOUTHERN NEW ENGLAND
 IN CT

CITY           SKY/WX    TMP DP  RH WIND       PRES   REMARKS
BRADLEY INTL   PTSUNNY   63  55  75 NW3       30.02R
HARTFORD       MOSUNNY   65  57  75 CALM      30.02R
DANBURY        SUNNY     62  55  77 SW3       30.05R
WTRBRY/OXFORD  MOSUNNY   63  54  72 CALM      30.05R
BRIDGEPORT     SUNNY     67  57  70 N5        30.02R
MERIDEN        SUNNY     64  58  80 CALM      30.02R
NEW HAVEN      MOSUNNY   67  58  72 N5        30.02R
CHESTER        FAIR      64  55  72 N3        30.03S
GROTON         MOSUNNY   64  58  80 N3        30.01R
WILLIMANTIC    PTSUNNY   59  57  93 CALM      30.03R

 IN RI

CITY           SKY/WX    TMP DP  RH WIND       PRES   REMARKS
PROVIDENCE     MOSUNNY   66  56  70 W3        30.01R
BLOCK ISLAND   MOSUNNY   66  57  72 CALM      30.02R
WESTERLY       CLOUDY    64  58  80 CALM      30.02R

 IN MA

CITY           SKY/WX    TMP DP  RH WIND       PRES   REMARKS
BOSTON         MOSUNNY   68  57  68 SW3       30.00S
WORCESTER      CLOUDY    63  55  75 VRB3      30.03R
WESTFIELD      CLOUDY    60  56  86 CALM      30.02R
PROVINCETOWN   MOSUNNY   66  61  82 W3        30.01R
NANTUCKET      MOSUNNY   67  64  90 SE3       30.00S
$$

ANZ330-335-338-340-345-350-353-355-301300-
COASTAL MARINE OBSERVATIONS


STATION/POSITION TIME  SKY/WX   TEMP    WIND        PRES    VSBY  WAVE
                                AIR SEA DIR/SP/G                  HT/PER
                 (UTC)          (F)     (DEG/KT/KT) (MB)    (MI)  (FT/S)
NY HARB ENTRANCE NOT AVBL
4S FIRE IS       NOT AVBL
23SW MTP         1200            68 69              1015.9          3/ 8
HUDSON CANYON    1200            74 74   CALM  /  2 1016.0          3/ 8
EXECUTION ROCKS  1200            69 69  330/  4/  8   N/A
WESTERN LI SOUND 1200            65     330/  4/  6   N/A           0
CENTRAL LI SOUND 1200            67 71   30/  4/  6   N/A           0
EASTERN LI SOUND 1100            64 68   30/  4/  6   N/A
ROBBINS REEF     1200            65     330/  5/  6   N/A
$$


>>>>>>>>>>>>>>>>>>>>>>>>>>>> KEY <<<<<<<<<<<<<<<<<<<<<<<<<<<
>                                                          <
>     SKY/WX - SKY CONDITION/PRESENT WEATHER               <
>     TMP    - TEMPERATURE IN FAHRENHEIT                   <
>     DP     - DEWPOINT IN FAHRENHEIT                      <
>     RH     - RELATIVE HUMIDITY IN PERCENT                <
>     WIND   - DIRECTION AND SPEED IN MPH                  <
>     PRES   - MEAN SEA LEVEL PRESSURE IN INCHES OF HG     <
>     WCI    - WIND CHILL INDEX                            <
>     VSB    - VISIBILITY IN MILES                         <
>     HX     - HEAT INDEX                                  <
>     TC     - TEMPERATURE IN CELSIUS                      <
>     VRB    - VARIABLE WIND DIRECTION                     <
>                                                          <
>>>>>>>>>>>>>>>>>>>>>>>>>>>> KEY <<<<<<<<<<<<<<<<<<<<<<<<<<<




USA.gov is the U.S. government's official web portal to all federal, state and local government web resources and services.